Location: Avoca
(45.7167°N, 74.7000°W)
Time: 22:08:48
(UTC+00:00)

BlueWalker 3 - Pass Details

Date: 28 November 2022
Orbit: 499 x 517 km, 53.2° (Epoch: 04 February)

Event Time Altitude Azimuth Distance (km) Brightness Sun altitude
Rises 23:36:24 0° 279° (W) 2,625 6.8 -23.6°
Reaches altitude 10° 23:38:50 10° 292° (WNW) 1,735 5.5 -24.1°
Enters shadow 23:41:41 27° 336° (NNW) 1,013 3.6 -24.5°
